Weather History for Pratt, KS

Change the Weather History Date:

Wednesday, August 27, 2014

  Actual Average (KP28) Record (KP28)
Temperature  
Mean Temperature 78 °F 78 °F  
Max Temperature 89 °F 91 °F 107 °F (1984)
Min Temperature 68 °F 66 °F 40 °F (1906)
Degree Days  
Heating Degree Days 0 0  
Month to date heating degree days 0  
Since 1 June heating degree days 3  
Since 1 July heating degree days 0  
Cooling Degree Days 14 13  
Month to date cooling degree days 423  
Year to date cooling degree days 1460  
Since 1 June cooling degree days 1304  
Growing Degree Days 28 (Base 50)    
Moisture  
Dew Point 62 °F    
Average Humidity 63    
Maximum Humidity 88    
Minimum Humidity 36    
Precipitation  
Precipitation 0.01 in 0.10 in 3.71 in (1986)
Month to date precipitation 2.69  
Year to date precipitation 19.92  
Snow  
Snow 0.00 in 0.00 in - ()
Month to date snowfall 0.0  
Since 1 June snowfall 0.0  
Since 1 July snowfall 0.0  
Snow Depth -    
Sea Level Pressure  
Sea Level Pressure 30.09 in    
Wind  
Wind Speed 8 mph (South)    
Max Wind Speed 14 mph    
Max Gust Speed 18 mph    
Visibility 10 miles    
Events Rain    
T = Trace of Precipitation, MM = Missing Value Source: NWS Daily Summary

Daily Weather History Graph

Daily Weather History Graph

Search for Another Location

Airport:

Trip Planner

Search our weather history database for the weather conditions in past years. The results will help you decide how hot, cold, wet, or windy it might be!

Date:

Astronomy

Aug. 27, 2014 Rise Set
Actual Time 7:00 AM CDT 8:11 PM CDT
Civil Twilight 6:33 AM CDT 8:38 PM CDT
Nautical Twilight 6:01 AM CDT 9:10 PM CDT
Astronomical Twilight 5:27 AM CDT 9:44 PM CDT
Moon 8:55 AM CDT (8/27) 9:07 PM CDT (8/27)
Length of Visible Light 14h 04m
Length of Day
13h 10m
Waxing Crescent, 4% of the Moon is Illuminated
Aug 27
Waxing Crescent
Sep 2
First Quarter
Sep 8
Full
Sep 15
Last Quarter
Sep 24
New

Hourly Weather History & Observations

Time (CDT) Temp. Heat Index Dew Point Humidity Pressure Visibility Wind Dir Wind Speed Gust Speed Precip Events Conditions
12:15 AM 73.4 °F - 62.6 °F 69% 30.12 in 10.0 mi SSW 5.8 mph - N/A   Clear
12:35 AM 75.2 °F - 62.6 °F 65% 30.11 in 10.0 mi South 5.8 mph - N/A   Clear
12:55 AM 75.2 °F - 62.6 °F 65% 30.11 in 10.0 mi South 6.9 mph - N/A   Clear
1:15 AM 75.2 °F - 62.6 °F 65% 30.11 in 10.0 mi South 6.9 mph - N/A   Clear
1:35 AM 75.2 °F - 62.6 °F 65% 30.12 in 10.0 mi South 6.9 mph - N/A   Clear
1:55 AM 73.4 °F - 62.6 °F 69% 30.11 in 10.0 mi South 6.9 mph - N/A   Clear
2:15 AM 75.2 °F - 60.8 °F 61% 30.12 in 10.0 mi South 12.7 mph - N/A   Clear
2:35 AM 75.2 °F - 59.0 °F 57% 30.12 in 10.0 mi SW 10.4 mph - N/A   Clear
2:55 AM 73.4 °F - 59.0 °F 61% 30.11 in 10.0 mi WSW 10.4 mph - N/A   Clear
3:15 AM 71.6 °F - 60.8 °F 69% 30.12 in 10.0 mi WSW 5.8 mph - N/A   Clear
3:35 AM 69.8 °F - 60.8 °F 73% 30.12 in 10.0 mi Calm Calm - N/A   Clear
3:55 AM 69.8 °F - 62.6 °F 78% 30.11 in 10.0 mi WNW 5.8 mph - N/A   Clear
4:15 AM 69.8 °F - 60.8 °F 73% 30.10 in 10.0 mi West 5.8 mph - N/A   Clear
4:35 AM 69.8 °F - 60.8 °F 73% 30.09 in 10.0 mi West 5.8 mph - N/A   Clear
4:55 AM 69.8 °F - 62.6 °F 78% 30.10 in 10.0 mi West 3.5 mph - N/A   Clear
5:15 AM 69.8 °F - 62.6 °F 78% 30.12 in 10.0 mi WSW 5.8 mph - N/A   Clear
5:35 AM 68.0 °F - 62.6 °F 83% 30.13 in 10.0 mi West 4.6 mph - N/A   Clear
5:55 AM 69.8 °F - 62.6 °F 78% 30.15 in 10.0 mi West 12.7 mph - N/A   Scattered Clouds
6:15 AM 69.8 °F - 60.8 °F 73% 30.15 in 10.0 mi West 6.9 mph - N/A   Scattered Clouds
6:35 AM 69.8 °F - 62.6 °F 78% 30.15 in 10.0 mi WNW 6.9 mph - N/A   Clear
6:55 AM 68.0 °F - 62.6 °F 83% 30.15 in 10.0 mi NW 3.5 mph - N/A Rain Light Rain
7:15 AM 68.0 °F - 62.6 °F 83% 30.15 in 10.0 mi West 8.1 mph - N/A Rain Light Rain
7:35 AM 68.0 °F - 64.4 °F 88% 30.15 in 10.0 mi West 9.2 mph - N/A   Light Drizzle
7:55 AM 68.0 °F - 62.6 °F 83% 30.16 in 10.0 mi WSW 8.1 mph - N/A Rain Light Rain
8:15 AM 68.0 °F - 62.6 °F 83% 30.15 in 10.0 mi WSW 11.5 mph - N/A Rain Light Rain
8:35 AM 68.0 °F - 62.6 °F 83% 30.13 in 10.0 mi WSW 8.1 mph - 0.01 in Rain Light Rain
8:55 AM 68.0 °F - 62.6 °F 83% 30.13 in 10.0 mi SSW 4.6 mph - 0.01 in Rain Light Rain
9:15 AM 68.0 °F - 64.4 °F 88% 30.12 in 10.0 mi SW 4.6 mph - N/A Rain Light Rain
9:35 AM 68.0 °F - 64.4 °F 88% 30.13 in 10.0 mi SSW 6.9 mph - N/A Rain Light Rain
9:55 AM 69.8 °F - 64.4 °F 83% 30.13 in 10.0 mi SW 6.9 mph - N/A   Light Drizzle
10:15 AM 71.6 °F - 66.2 °F 83% 30.13 in 10.0 mi SSW 6.9 mph - N/A   Scattered Clouds
10:35 AM 73.4 °F - 68.0 °F 83% 30.13 in 10.0 mi South 10.4 mph - N/A   Scattered Clouds
10:55 AM 77.0 °F - 64.4 °F 65% 30.13 in 10.0 mi SSW 11.5 mph - N/A   Clear
11:15 AM 77.0 °F - 64.4 °F 65% 30.13 in 10.0 mi South 12.7 mph - N/A   Clear
11:35 AM 77.0 °F - 64.4 °F 65% 30.13 in 10.0 mi South 11.5 mph - N/A   Clear
11:55 AM 77.0 °F - 62.6 °F 61% 30.12 in 10.0 mi SSE 11.5 mph - N/A   Clear
12:15 PM 78.8 °F - 64.4 °F 61% 30.12 in 10.0 mi SSE 10.4 mph - N/A   Clear
12:35 PM 78.8 °F - 64.4 °F 61% 30.12 in 10.0 mi SSE 11.5 mph - N/A   Clear
12:55 PM 78.8 °F - 64.4 °F 61% 30.12 in 10.0 mi SSE 10.4 mph - N/A   Scattered Clouds
1:15 PM 78.8 °F - 62.6 °F 57% 30.12 in 10.0 mi SSE 12.7 mph - N/A   Mostly Cloudy
1:35 PM 78.8 °F - 64.4 °F 61% 30.11 in 10.0 mi SSE 10.4 mph - N/A   Mostly Cloudy
1:55 PM 78.8 °F - 62.6 °F 57% 30.11 in 10.0 mi SE 10.4 mph - N/A   Mostly Cloudy
2:15 PM 78.8 °F - 62.6 °F 57% 30.10 in 10.0 mi SE 10.4 mph - N/A   Mostly Cloudy
2:35 PM 80.6 °F 81.8 °F 62.6 °F 54% 30.10 in 10.0 mi SSE 10.4 mph - N/A   Scattered Clouds
2:55 PM 80.6 °F 81.8 °F 62.6 °F 54% 30.09 in 10.0 mi SSE 9.2 mph - N/A   Scattered Clouds
3:15 PM 80.6 °F 82.3 °F 64.4 °F 58% 30.09 in 10.0 mi SSE 6.9 mph - N/A   Scattered Clouds
3:35 PM 80.6 °F 82.3 °F 64.4 °F 58% 30.08 in 10.0 mi SSE 8.1 mph - N/A   Mostly Cloudy
3:55 PM 82.4 °F 83.9 °F 64.4 °F 54% 30.07 in 10.0 mi SSE 6.9 mph - N/A   Mostly Cloudy
4:15 PM 82.4 °F 83.9 °F 64.4 °F 54% 30.05 in 10.0 mi SE 8.1 mph - N/A   Mostly Cloudy
4:35 PM 82.4 °F 83.9 °F 64.4 °F 54% 30.04 in 10.0 mi ESE 6.9 mph - N/A   Scattered Clouds
4:55 PM 86.0 °F 87.3 °F 64.4 °F 48% 30.03 in 10.0 mi SE 9.2 mph - N/A   Scattered Clouds
5:15 PM 89.6 °F 88.9 °F 59.0 °F 36% 30.02 in 10.0 mi SSE 13.8 mph 18.4 mph N/A   Mostly Cloudy
5:35 PM 86.0 °F 86.1 °F 60.8 °F 43% 30.02 in 10.0 mi SSE 11.5 mph - N/A   Mostly Cloudy
5:55 PM 86.0 °F 86.1 °F 60.8 °F 43% 30.03 in 10.0 mi SSE 8.1 mph - N/A   Scattered Clouds
6:15 PM 86.0 °F 86.1 °F 60.8 °F 43% 30.01 in 10.0 mi SE 9.2 mph - N/A   Clear
6:35 PM 86.0 °F 86.1 °F 60.8 °F 43% 30.01 in 10.0 mi SE 9.2 mph - N/A   Clear
6:55 PM 86.0 °F 86.1 °F 60.8 °F 43% 30.00 in 10.0 mi SE 9.2 mph - N/A   Clear
7:15 PM 84.2 °F 84.4 °F 60.8 °F 45% 30.00 in 10.0 mi SSE 8.1 mph - N/A   Clear
7:35 PM 82.4 °F 82.9 °F 60.8 °F 48% 30.00 in 10.0 mi SE 6.9 mph - N/A   Clear
7:55 PM 82.4 °F 82.9 °F 60.8 °F 48% 30.00 in 10.0 mi SE 6.9 mph - N/A   Clear
8:15 PM 82.4 °F 82.5 °F 59.0 °F 45% 30.01 in 10.0 mi SSE 5.8 mph - N/A   Clear
8:35 PM 82.4 °F 82.5 °F 59.0 °F 45% 30.02 in 10.0 mi SSE 5.8 mph - N/A   Scattered Clouds
8:55 PM 82.4 °F 82.5 °F 59.0 °F 45% 30.02 in 10.0 mi SSE 6.9 mph - N/A Rain Light Rain
9:15 PM 80.6 °F 81.5 °F 60.8 °F 51% 30.02 in 10.0 mi SSE 6.9 mph - N/A Rain Light Rain
9:35 PM 80.6 °F 81.1 °F 59.0 °F 48% 30.02 in 10.0 mi South 8.1 mph - N/A   Scattered Clouds
9:55 PM 77.0 °F - 60.8 °F 57% 30.03 in 10.0 mi SSW 6.9 mph - N/A   Scattered Clouds
10:15 PM 78.8 °F - 60.8 °F 54% 30.01 in 10.0 mi SSE 6.9 mph - N/A   Clear
10:35 PM 78.8 °F - 60.8 °F 54% 30.01 in 10.0 mi SSW 8.1 mph - N/A   Clear
10:55 PM 77.0 °F - 60.8 °F 57% 30.01 in 10.0 mi South 9.2 mph - N/A   Clear
11:15 PM 77.0 °F - 62.6 °F 61% 30.00 in 10.0 mi SSW 8.1 mph - N/A   Clear
11:35 PM 75.2 °F - 62.6 °F 65% 30.00 in 10.0 mi South 8.1 mph - N/A   Clear
11:55 PM 75.2 °F - 62.6 °F 65% 30.00 in 10.0 mi South 8.1 mph - N/A   Clear